Location: El Pozo
(10.5539°N, 67.0867°W)
Time: 09:57:52
(UTC+00:00)

Daily predictions for brighter satellites

Satellite Brightness Start Highest point End
(mag) Time Altitude Azimuth Time Altitude Azimuth Time Altitude Azimuth
ATLAS 2AS CENTAUR RB 4.3 20:32:35 10° WSW 20:37:58 78° SSE 21:24:16 10° E
ATLAS 2AS CENTAUR RB 4.3 20:32:34 10° WSW 20:37:58 78° SSE 21:24:16 10° E
ATLAS 2AS CENTAUR RB 4.3 20:32:34 10° WSW 20:37:59 78° SSE 21:24:16 10° E
Ariane H10+ 2.6 22:58:32 10° WSW 23:01:10 59° S 23:07:39 10° E
Cosmos 1844 3.8 22:58:27 10° N 23:04:11 70° ENE 23:09:51 10° SSE
Helios 1B rocket 3.3 23:00:43 10° S 23:04:31 50° WSW 23:08:19 10° NNW
Cosmos 1238 Rocket 4.3 23:00:46 10° SE 23:04:33 26° E 23:08:45 10° NNE
Centaur D AC-29 1.6 23:03:33 10° WSW 23:07:49 61° NNW 23:11:46 10° ENE
Okean 1-7 Rocket 3.7 23:03:49 10° N 23:08:10 57° E 23:12:30 10° SSE
Cosmos 1812 3.7 23:06:16 10° SSE 23:09:09 23° E 23:12:02 10° NE
Centaur D-1AR AC-37 4.1 23:05:25 10° WNW 23:09:18 87° SSW 23:13:56 10° ESE
SL-08 R/B 3.9 23:04:37 10° N 23:09:28 67° WNW 23:14:17 10° SSW
Cosmos 2237 Rocket 2.2 23:04:18 10° S 23:09:52 63° ESE 23:15:28 10° NNE
Helios 1A 4.4 23:07:22 10° N 23:11:13 42° WNW 23:15:04 10° SSW
Cosmos 2100 Rocket 4.0 23:05:59 10° N 23:12:05 70° E 23:18:10 10° S
Cosmos 1626 Rocket 4.2 23:09:15 10° NNW 23:13:33 59° W 23:17:50 10° S
Timation 2 Rocket 4.1 23:09:50 10° N 23:15:39 51° ENE 23:21:25 10° SSE
Cosmos 1844 Rocket 3.0 23:11:11 10° NNW 23:16:42 71° WSW 23:22:14 10° S
SL-8 R/B 3.7 23:12:15 10° SSW 23:16:54 58° SE 23:21:32 10° NE
IGS 5A 3.6 23:13:42 10° S 23:17:45 78° W 23:21:49 10° NNW
Cosmos 1980 3.7 23:12:23 10° SSW 23:18:02 84° ESE 23:23:40 10° NNE
Milstar 3 3.1 23:13:44 10° WNW 23:20:24 79° SSW 23:29:15 12° ESE
GPS 2-15 Rocket1 4.2 23:20:39 10° W 23:25:04 35° SSW 23:28:58 12° SE
Cosmos 2173 Rocket 4.0 23:21:31 10° N 23:27:39 87° W 23:33:44 10° S
Ariane 3 Deb 3.4 23:25:55 10° WSW 23:29:58 29° S 23:31:45 17° SE
Cosmos 1666 3.4 23:28:24 10° NNE 23:31:22 27° E 23:33:06 18° SE
Cosmos 2150 Rocket 4.4 23:26:33 10° N 23:31:43 48° ENE 23:36:45 11° SSE
YAOGAN 3 4.5 23:30:44 10° SSE 23:35:02 87° ENE 23:39:18 10° N
Cosmos 1725 Rocket 4.1 23:29:45 10° N 23:35:57 60° E 23:42:09 10° SSE
ADEOS Rocket 3.3 23:33:30 10° S 23:39:06 67° WSW 23:45:13 10° NNW
Cosmos 1862 3.2 23:36:30 10° N 23:40:17 83° W 23:44:04 10° S
CZ-4B R/B 3.3 23:35:40 10° SSE 23:40:24 89° E 23:45:09 10° NNW
Cosmos 1802 Rocket 4.0 23:34:08 10° N 23:40:33 85° E 23:46:53 10° S
GEOS 3 Rocket 4.2 23:37:26 10° NE 23:41:52 31° ESE 23:46:15 10° S
Intelsat 5-3 Rocket 1.9 23:39:14 10° WNW 23:41:56 88° NNE 23:44:33 23° ESE
Resurs 1-3 4.3 23:40:20 20° SE 23:42:36 33° ENE 23:46:30 10° NNE
Landsat 7 3.7 23:38:06 10° SSE 23:42:48 81° ENE 23:47:29 10° N
YAOGAN 1 2.8 23:40:46 10° S 23:45:02 71° WSW 23:49:18 10° NNW
Cosmos 1867 3.6 23:40:36 10° NNW 23:46:02 79° WSW 23:51:01 12° SSE
OAO 1 4.4 23:41:30 10° SW 23:47:00 83° SE 23:52:28 10° ENE
Cosmos 2058 Rocket 3.1 23:43:15 10° S 23:47:36 79° W 23:51:58 10° N
Cosmos 1500 2.8 23:45:14 10° N 23:48:40 90° ENE 23:51:24 15° S
Cosmos 1953 Rocket 4.1 23:46:24 10° NNE 23:50:29 38° E 23:52:01 29° SE
CZ-4B R/B 4.2 23:52:50 24° E 23:53:58 26° ENE 23:58:19 10° NNE
